Iron Mountain, MI

12:33 PM CDT on July 23, 2016 (GMT -0500)
Ford

Weather History for KIMT - November, 2013

Change the Weather History Date:

Friday, November 22, 2013

  Actual Average Record
Temperature  
Mean Temperature 26 °F -  
Max Temperature 32 °F 36 °F 62 °F (2012)
Min Temperature 19 °F 20 °F 0 °F (2008)
Degree Days  
Heating Degree Days 38    
Moisture  
Dew Point 16 °F    
Average Humidity 69    
Maximum Humidity 81    
Minimum Humidity 41    
Precipitation  
Precipitation 0.00 in - - ()
Sea Level Pressure  
Sea Level Pressure 30.36 in    
Wind  
Wind Speed 13 mph (NW)    
Max Wind Speed 18 mph    
Max Gust Speed 32 mph    
Visibility 7 miles    
Events Snow    
Averages and records for this station are not official NWS values.
T = Trace of Precipitation, MM = Missing Value Source: NWS Daily Summary

Daily Weather History Graph

Daily Weather History Graph

Search for Another Location

Airport or City:

Trip Planner

Search our weather history database for the weather conditions in past years. The results will help you decide how hot, cold, wet, or windy it might be!

Date:

Astronomy

Nov. 22, 2013 Rise Set
Actual Time 7:02 AM CST 4:14 PM CST
Civil Twilight 6:29 AM CST 4:47 PM CST
Nautical Twilight 5:52 AM CST 5:24 PM CST
Astronomical Twilight 5:17 AM CST 5:59 PM CST
Moon 8:50 PM CST (11/22) 10:42 AM CST (11/22)
Length of Visible Light 10h 18m
Length of Day
9h 12m
Waning Gibbous, 78% of the Moon is Illuminated
Nov 22
Waning Gibbous
Nov 25
Last Quarter
Dec 2
New
Dec 9
First Quarter
Dec 17
Full

Hourly Weather History & Observations

Time (CST) Temp. Windchill Dew Point Humidity Pressure Visibility Wind Dir Wind Speed Gust Speed Precip Events Conditions
12:46 AM 26.6 °F 15.7 °F 21.2 °F 80% 30.30 in 2.5 mi North 12.7 mph - 0.00 in Snow Light Snow
12:54 AM 27.0 °F 15.6 °F 21.9 °F 81% 30.35 in 3.0 mi NNW 13.8 mph - 0.00 in Snow Light Snow
1:22 AM 26.6 °F 14.3 °F 21.2 °F 80% 30.31 in 2.5 mi North 16.1 mph - 0.00 in Snow Light Snow
1:33 AM 26.6 °F 15.7 °F 21.2 °F 80% 30.31 in 3.0 mi NNW 12.7 mph 21.9 mph 0.00 in Snow Light Snow
1:54 AM 27.0 °F 16.1 °F 21.0 °F 78% 30.37 in 2.5 mi North 12.7 mph - 0.00 in Snow Light Snow
2:14 AM 26.6 °F 14.3 °F 21.2 °F 80% 30.32 in 4.0 mi NNW 16.1 mph 21.9 mph 0.00 in Snow Light Snow
2:39 AM 26.6 °F 15.7 °F 21.2 °F 80% 30.32 in 1.8 mi NNW 12.7 mph - 0.00 in Snow Light Snow
2:49 AM 26.6 °F 14.7 °F 21.2 °F 80% 30.32 in 3.0 mi NNW 15.0 mph 19.6 mph 0.00 in Snow Light Snow
2:54 AM 26.1 °F 15.6 °F 19.9 °F 78% 30.38 in 4.0 mi NNW 11.5 mph - 0.00 in Snow Light Snow
3:54 AM 25.0 °F 13.6 °F 19.9 °F 81% 30.38 in 4.0 mi NNW 12.7 mph 21.9 mph 0.00 in Snow Light Snow
4:54 AM 25.0 °F 12.6 °F 19.0 °F 78% 30.39 in 10.0 mi NNW 15.0 mph 23.0 mph 0.00 in   Overcast
5:01 AM 24.8 °F 13.4 °F 19.4 °F 80% 30.34 in 10.0 mi NNW 12.7 mph - N/A   Overcast
5:54 AM 25.0 °F 12.2 °F 18.0 °F 75% 30.39 in 10.0 mi NNW 16.1 mph 21.9 mph N/A   Overcast
6:54 AM 24.1 °F 11.0 °F 18.0 °F 77% 30.42 in 10.0 mi NNW 16.1 mph 20.7 mph N/A   Overcast
7:54 AM 24.1 °F 10.1 °F 17.1 °F 75% 30.45 in 10.0 mi NNW 18.4 mph 26.5 mph N/A   Overcast
8:54 AM 25.0 °F 14.2 °F 17.1 °F 72% 30.47 in 10.0 mi NNW 11.5 mph - N/A   Overcast
9:54 AM 25.0 °F 14.2 °F 17.1 °F 72% 30.46 in 10.0 mi NW 11.5 mph - N/A   Overcast
10:54 AM 26.1 °F 16.2 °F 17.1 °F 69% 30.45 in 10.0 mi NNW 10.4 mph - N/A   Mostly Cloudy
11:21 AM 26.6 °F 19.1 °F 17.6 °F 69% 30.38 in 10.0 mi NW 6.9 mph - N/A   Scattered Clouds
11:54 AM 28.0 °F 19.3 °F 17.1 °F 63% 30.43 in 10.0 mi NNW 9.2 mph - N/A   Scattered Clouds
12:54 PM 28.9 °F 21.1 °F 17.1 °F 61% 30.41 in 10.0 mi NW 8.1 mph - N/A   Clear
1:54 PM 30.9 °F 25.2 °F 15.1 °F 52% 30.40 in 10.0 mi West 5.8 mph - N/A   Clear
2:54 PM 32.0 °F 26.4 °F 14.0 °F 48% 30.37 in 10.0 mi SW 5.8 mph - N/A   Clear
3:54 PM 30.0 °F 23.2 °F 12.9 °F 49% 30.36 in 10.0 mi SW 6.9 mph - N/A   Clear
4:54 PM 28.0 °F 22.8 °F 12.0 °F 51% 30.35 in 10.0 mi SSW 4.6 mph - N/A   Clear
5:54 PM 28.0 °F 22.8 °F 10.9 °F 49% 30.34 in 10.0 mi WSW 4.6 mph - N/A   Scattered Clouds
6:54 PM 28.0 °F 17.5 °F 7.0 °F 41% 30.33 in 10.0 mi West 12.7 mph 21.9 mph N/A   Mostly Cloudy
7:54 PM 27.0 °F 15.2 °F 9.0 °F 47% 30.34 in 10.0 mi WNW 15.0 mph 21.9 mph N/A   Scattered Clouds
8:54 PM 24.1 °F 13.1 °F 12.9 °F 62% 30.34 in 10.0 mi WNW 11.5 mph 20.7 mph N/A   Clear
9:34 PM 23.0 °F 11.1 °F 15.8 °F 74% 30.29 in 2.5 mi WNW 12.7 mph 28.8 mph 0.00 in Snow Light Snow
9:50 PM 21.2 °F 10.9 °F 15.8 °F 80% 30.29 in 5.0 mi NW 9.2 mph - 0.00 in Snow Light Snow
9:54 PM 21.9 °F 9.2 °F 16.0 °F 78% 30.35 in 6.0 mi NNW 13.8 mph 23.0 mph 0.00 in Snow Light Snow
10:25 PM 21.2 °F 7.3 °F 14.0 °F 74% 30.30 in 2.5 mi NW 16.1 mph 27.6 mph 0.00 in Snow Light Snow
10:34 PM 21.2 °F 7.3 °F 12.2 °F 68% 30.30 in 6.0 mi NW 16.1 mph 32.2 mph 0.00 in Snow Light Snow
10:43 PM 21.2 °F 7.8 °F 10.4 °F 63% 30.30 in 9.0 mi NW 15.0 mph 26.5 mph 0.00 in   Overcast
10:54 PM 21.0 °F 6.6 °F 10.9 °F 65% 30.38 in 10.0 mi NW 17.3 mph 25.3 mph 0.00 in   Overcast
11:54 PM 19.0 °F 5.0 °F 10.0 °F 68% 30.39 in 10.0 mi NW 15.0 mph 21.9 mph N/A   Mostly Cloudy